owner,sensor,date,latitude,longitude,vertical_datum,wind_speed,wind_to_direction,wind_speed_of_gust,qcFlag 
TABS,ioos:station:wmo:42043:1,2014-04-17T00:00:00Z,28.9818,-94.9186,4.0,7.243652394,119.8923958,9.29,'11111222,11111222,11111222' 
TABS,ioos:station:wmo:42043:1,2014-04-17T00:30:00Z,28.9818,-94.9186,4.0,7.804844649,106.0667839,9.58,'11111222,11111222,11111222' 
TABS,ioos:station:wmo:42043:1,2014-04-17T01:00:00Z,28.9818,-94.9186,4.0,7.847400844,109.6591104,9.53,'11111222,11111222,11111222' 
TABS,ioos:station:wmo:42043:1,2014-04-17T01:30:00Z,28.9818,-94.9186,4.0,8.256512581,109.9716232,10.11,'11111222,11111222,11111222' 
TABS,ioos:station:wmo:42043:1,2014-04-17T02:00:00Z,28.9818,-94.9186,4.0,7.720939062,109.6791579,9.8,'11111222,11111222,11111222' 
TABS,ioos:station:wmo:42043:1,2014-04-17T02:30:00Z,28.9818,-94.9186,4.0,7.574483481,113.9935754,9.53,'11111222,11111222,11111222' 
TABS,ioos:station:wmo:42043:1,2014-04-17T03:00:00Z,28.9818,-94.9186,4.0,8.17712052,117.8502719,10.41,'11111222,11111222,11111222' 
TABS,ioos:station:wmo:42043:1,2014-04-17T03:30:00Z,28.9818,-94.9186,4.0,8.269619096,119.3241383,10.29,'11111222,11111222,11111222' 
TABS,ioos:station:wmo:42043:1,2014-04-17T04:00:00Z,28.9818,-94.9186,4.0,8.634871163,128.7948543,10.59,'11111222,11111222,11111222' 
TABS,ioos:station:wmo:42043:1,2014-04-17T04:30:00Z,28.9818,-94.9186,4.0,8.507467308,127.9343837,10.78,'11111222,11111222,11111222' 
TABS,ioos:station:wmo:42043:1,2014-04-17T05:00:00Z,28.9818,-94.9186,4.0,8.80679851,128.3146824,11.23,'11111222,11111222,11111222' 
TABS,ioos:station:wmo:42043:1,2014-04-17T05:30:00Z,28.9818,-94.9186,4.0,8.682079244,128.1241994,10.88,'11111222,11111222,11111222' 
TABS,ioos:station:wmo:42043:1,2014-04-17T06:00:00Z,28.9818,-94.9186,4.0,7.70979896,125.0715053,9.56,'11111222,11111222,11111222' 
TABS,ioos:station:wmo:42043:1,2014-04-17T06:30:00Z,28.9818,-94.9186,4.0,8.302409289,134.1219164,10.5,'11111222,11111222,11111222' 
TABS,ioos:station:wmo:42043:1,2014-04-17T07:00:00Z,28.9818,-94.9186,4.0,8.049670801,133.4902354,9.98,'11111222,11111222,11111222' 
TABS,ioos:station:wmo:42043:1,2014-04-17T07:30:00Z,28.9818,-94.9186,4.0,7.760315715,126.3534042,9.69,'11111222,11111222,11111222' 
TABS,ioos:station:wmo:42043:1,2014-04-17T08:00:00Z,28.9818,-94.9186,4.0,7.454998323,122.1768092,8.89,'11111222,11111222,11111222' 
TABS,ioos:station:wmo:42043:1,2014-04-17T08:30:00Z,28.9818,-94.9186,4.0,6.547304789,125.0497123,8.4,'11111222,11111222,11111222' 
TABS,ioos:station:wmo:42043:1,2014-04-17T09:00:00Z,28.9818,-94.9186,4.0,5.668553607,112.946789,7.17,'11111222,11111222,11111222' 
TABS,ioos:station:wmo:42043:1,2014-04-17T09:30:00Z,28.9818,-94.9186,4.0,6.494074222,118.8150126,8.13,'11111222,11111222,11111222' 
TABS,ioos:station:wmo:42043:1,2014-04-17T10:00:00Z,28.9818,-94.9186,4.0,6.850583917,113.7590463,9.23,'11111222,11111222,11111222' 
TABS,ioos:station:wmo:42043:1,2014-04-17T10:30:00Z,28.9818,-94.9186,4.0,6.663370018,111.0193624,8.58,'11111222,11111222,11111222' 
TABS,ioos:station:wmo:42043:1,2014-04-17T11:00:00Z,28.9818,-94.9186,4.0,6.207326317,116.6066893,7.66,'11111222,11111222,11111222' 
TABS,ioos:station:wmo:42043:1,2014-04-17T11:30:00Z,28.9818,-94.9186,4.0,6.639307193,114.9442679,8.25,'11111222,11111222,11111222' 
TABS,ioos:station:wmo:42043:1,2014-04-17T12:00:00Z,28.9818,-94.9186,4.0,6.588747984,96.97441586,8.21,'11111222,11111222,11111222' 
TABS,ioos:station:wmo:42043:1,2014-04-17T12:30:00Z,28.9818,-94.9186,4.0,6.929617594,95.29963754,8.69,'11111222,11111222,11111222' 
TABS,ioos:station:wmo:42043:1,2014-04-17T13:00:00Z,28.9818,-94.9186,4.0,8.047223124,109.8314064,10.08,'11111222,11111222,11111222' 
TABS,ioos:station:wmo:42043:1,2014-04-17T13:30:00Z,28.9818,-94.9186,4.0,7.810403319,106.2077698,9.87,'11111222,11111222,11111222' 
TABS,ioos:station:wmo:42043:1,2014-04-17T14:00:00Z,28.9818,-94.9186,4.0,9.745665703,103.409228,12.55,'11111222,11111222,11111222' 
TABS,ioos:station:wmo:42043:1,2014-04-17T14:30:00Z,28.9818,-94.9186,4.0,9.750779456,103.281285,12.2,'11111222,11111222,11111222' 
TABS,ioos:station:wmo:42043:1,2014-04-17T15:00:00Z,28.9818,-94.9186,4.0,8.732313554,107.4600875,11.11,'11111222,11111222,11111222' 
TABS,ioos:station:wmo:42043:1,2014-04-17T15:30:00Z,28.9818,-94.9186,4.0,8.684204051,95.08731887,10.63,'11111222,11111222,11111222' 
TABS,ioos:station:wmo:42043:1,2014-04-17T16:00:00Z,28.9818,-94.9186,4.0,9.663550072,97.07394205,11.88,'11111222,11111222,11111222' 
TABS,ioos:station:wmo:42043:1,2014-04-17T16:30:00Z,28.9818,-94.9186,4.0,10.1371495,98.33832796,12.79,'11111222,11111222,11111222' 
TABS,ioos:station:wmo:42043:1,2014-04-17T17:00:00Z,28.9818,-94.9186,4.0,9.599135378,96.88110676,11.79,'11111222,11111222,11111222' 
TABS,ioos:station:wmo:42043:1,2014-04-17T17:30:00Z,28.9818,-94.9186,4.0,8.470478145,90.60920652,10.49,'11111222,11111222,11111222' 
TABS,ioos:station:wmo:42043:1,2014-04-17T18:00:00Z,28.9818,-94.9186,4.0,8.270096735,90.27754401,10.37,'11111222,11111222,11111222' 
TABS,ioos:station:wmo:42043:1,2014-04-17T18:30:00Z,28.9818,-94.9186,4.0,7.261625162,85.576678,9.3,'11111222,11111222,11111222' 
TABS,ioos:station:wmo:42043:1,2014-04-17T19:00:00Z,28.9818,-94.9186,4.0,7.545236908,73.91862207,9.4,'11111222,11111222,11111222' 
TABS,ioos:station:wmo:42043:1,2014-04-17T19:30:00Z,28.9818,-94.9186,4.0,7.412017269,73.86309412,9.8,'11111222,11111222,11111222' 
TABS,ioos:station:wmo:42043:1,2014-04-17T20:00:00Z,28.9818,-94.9186,4.0,8.108964176,73.37481894,10.18,'11111222,11111222,11111222' 
TABS,ioos:station:wmo:42043:1,2014-04-17T20:30:00Z,28.9818,-94.9186,4.0,7.979931077,70.45205596,10.61,'11111222,11111222,11111222' 
TABS,ioos:station:wmo:42043:1,2014-04-17T21:00:00Z,28.9818,-94.9186,4.0,8.541018675,70.07956339,10.67,'11111222,11111222,11111222' 
TABS,ioos:station:wmo:42043:1,2014-04-17T21:30:00Z,28.9818,-94.9186,4.0,8.124733842,70.73953039,9.79,'11111222,11111222,11111222' 
TABS,ioos:station:wmo:42043:1,2014-04-17T22:00:00Z,28.9818,-94.9186,4.0,7.799955128,76.05244742,9.95,'11111222,11111222,11111222' 
TABS,ioos:station:wmo:42043:1,2014-04-17T22:30:00Z,28.9818,-94.9186,4.0,7.909696581,81.85925157,9.94,'11111222,11111222,11111222' 
TABS,ioos:station:wmo:42043:1,2014-04-17T23:00:00Z,28.9818,-94.9186,4.0,7.731093066,78.28270931,10.03,'11111222,11111222,11111222' 
TABS,ioos:station:wmo:42043:1,2014-04-17T23:30:00Z,28.9818,-94.9186,4.0,7.697648992,70.81144616,10.31,'11111222,11111222,11111222' 
TABS,ioos:station:wmo:42043:1,2014-04-18T00:00:00Z,28.9818,-94.9186,4.0,7.698447896,75.40378793,9.59,'11111222,11111222,11111222' 
TABS,ioos:station:wmo:42043:1,2014-04-18T00:30:00Z,28.9818,-94.9186,4.0,8.202877544,75.45514127,10.22,'11111222,11111222,11111222' 
TABS,ioos:station:wmo:42043:1,2014-04-18T01:00:00Z,28.9818,-94.9186,4.0,8.131377497,80.9427206,9.94,'11111222,11111222,11111222' 
TABS,ioos:station:wmo:42043:1,2014-04-18T01:30:00Z,28.9818,-94.9186,4.0,7.889702149,75.84007643,9.53,'11111222,11111222,11111222' 
TABS,ioos:station:wmo:42043:1,2014-04-18T02:00:00Z,28.9818,-94.9186,4.0,8.097635457,78.67579666,10.41,'11111222,11111222,11111222' 
TABS,ioos:station:wmo:42043:1,2014-04-18T02:30:00Z,28.9818,-94.9186,4.0,7.23840452,74.94582489,9.25,'11111222,11111222,11111222' 
TABS,ioos:station:wmo:42043:1,2014-04-18T03:00:00Z,28.9818,-94.9186,4.0,7.57005284,74.3661153,9.52,'11111222,11111222,11111222' 
TABS,ioos:station:wmo:42043:1,2014-04-18T03:30:00Z,28.9818,-94.9186,4.0,6.865311355,71.48549933,8.62,'11111222,11111222,11111222' 
TABS,ioos:station:wmo:42043:1,2014-04-18T04:00:00Z,28.9818,-94.9186,4.0,7.155207894,74.35120042,8.64,'11111222,11111222,11111222' 
TABS,ioos:station:wmo:42043:1,2014-04-18T04:30:00Z,28.9818,-94.9186,4.0,6.881162692,71.35402856,8.78,'11111222,11111222,11111222' 
TABS,ioos:station:wmo:42043:1,2014-04-18T05:00:00Z,28.9818,-94.9186,4.0,7.201472072,60.37318738,8.99,'11111222,11111222,11111222' 
TABS,ioos:station:wmo:42043:1,2014-04-18T05:30:00Z,28.9818,-94.9186,4.0,6.847481289,50.45122266,8.61,'11111222,11111222,11111222' 
TABS,ioos:station:wmo:42043:1,2014-04-18T06:00:00Z,28.9818,-94.9186,4.0,6.651691514,54.42193152,8.61,'11111222,11111222,11111222' 
TABS,ioos:station:wmo:42043:1,2014-04-18T06:30:00Z,28.9818,-94.9186,4.0,6.270861185,48.68482235,8.23,'11111222,11111222,11111222' 
TABS,ioos:station:wmo:42043:1,2014-04-18T07:00:00Z,28.9818,-94.9186,4.0,6.502015072,53.25313551,8.07,'11111222,11111222,11111222' 
TABS,ioos:station:wmo:42043:1,2014-04-18T07:30:00Z,28.9818,-94.9186,4.0,6.550190837,53.5671305,8.18,'11111222,11111222,11111222' 
TABS,ioos:station:wmo:42043:1,2014-04-18T08:00:00Z,28.9818,-94.9186,4.0,6.146063781,52.86874146,7.95,'11111222,11111222,11111222' 
TABS,ioos:station:wmo:42043:1,2014-04-18T08:30:00Z,28.9818,-94.9186,4.0,6.20638381,51.54170716,7.55,'11111222,11111222,11111222' 
TABS,ioos:station:wmo:42043:1,2014-04-18T09:00:00Z,28.9818,-94.9186,4.0,5.965115255,59.69481525,7.23,'11111222,11111222,11111222' 
TABS,ioos:station:wmo:42043:1,2014-04-18T09:30:00Z,28.9818,-94.9186,4.0,5.641506891,48.88062856,7.12,'11111222,11111222,11111222' 
TABS,ioos:station:wmo:42043:1,2014-04-18T10:00:00Z,28.9818,-94.9186,4.0,6.027354312,34.45437796,7.53,'11111222,11111222,11111222' 
TABS,ioos:station:wmo:42043:1,2014-04-18T10:30:00Z,28.9818,-94.9186,4.0,6.458645369,32.28720122,7.94,'11111222,11111222,11111222' 
TABS,ioos:station:wmo:42043:1,2014-04-18T11:00:00Z,28.9818,-94.9186,4.0,6.079638147,33.32384392,7.38,'11111222,11111222,11111222' 
TABS,ioos:station:wmo:42043:1,2014-04-18T11:30:00Z,28.9818,-94.9186,4.0,5.892953419,37.90026684,7.43,'11111222,11111222,11111222' 
TABS,ioos:station:wmo:42043:1,2014-04-18T12:00:00Z,28.9818,-94.9186,4.0,5.474093532,37.20453699,6.57,'11111222,11111222,11111222' 
TABS,ioos:station:wmo:42043:1,2014-04-18T12:30:00Z,28.9818,-94.9186,4.0,5.230726527,42.44284934,6.59,'11111222,11111222,11111222' 
TABS,ioos:station:wmo:42043:1,2014-04-18T13:00:00Z,28.9818,-94.9186,4.0,5.056925944,38.81875986,6.1,'11111222,11111222,11111222' 
TABS,ioos:station:wmo:42043:1,2014-04-18T13:30:00Z,28.9818,-94.9186,4.0,5.168287918,23.48945971,6.38,'11111222,11111222,11111222' 
TABS,ioos:station:wmo:42043:1,2014-04-18T14:00:00Z,28.9818,-94.9186,4.0,5.049277176,20.1573533,6.25,'11111222,11111222,11111222' 
TABS,ioos:station:wmo:42043:1,2014-04-18T14:30:00Z,28.9818,-94.9186,4.0,5.287882374,25.06244532,6.42,'11111222,11111222,11111222' 
TABS,ioos:station:wmo:42043:1,2014-04-18T15:00:00Z,28.9818,-94.9186,4.0,4.548241418,26.22675511,5.62,'11111222,11111222,11111222' 
TABS,ioos:station:wmo:42043:1,2014-04-18T15:30:00Z,28.9818,-94.9186,4.0,4.602195128,12.67710688,5.52,'11111222,11111222,11111222' 
TABS,ioos:station:wmo:42043:1,2014-04-18T16:00:00Z,28.9818,-94.9186,4.0,4.329260907,22.83339032,5.59,'11111222,11111222,11111222' 
TABS,ioos:station:wmo:42043:1,2014-04-18T16:30:00Z,28.9818,-94.9186,4.0,4.284880395,20.634038,5.58,'11111222,11111222,11111222' 
TABS,ioos:station:wmo:42043:1,2014-04-18T17:00:00Z,28.9818,-94.9186,4.0,4.45812741,20.34519719,5.47,'11111222,11111222,11111222' 
TABS,ioos:station:wmo:42043:1,2014-04-18T17:30:00Z,28.9818,-94.9186,4.0,4.222913686,13.27912299,5.17,'11111222,11111222,11111222' 
TABS,ioos:station:wmo:42043:1,2014-04-18T18:00:00Z,28.9818,-94.9186,4.0,4.288822682,23.93509386,4.83,'11111222,11111222,11111222' 
TABS,ioos:station:wmo:42043:1,2014-04-18T18:30:00Z,28.9818,-94.9186,4.0,3.89,29.06863173,4.94,'11111222,11111222,11111222' 
TABS,ioos:station:wmo:42043:1,2014-04-18T19:00:00Z,28.9818,-94.9186,4.0,3.549028036,19.76216426,4.52,'11111222,11111222,11111222' 
TABS,ioos:station:wmo:42043:1,2014-04-18T19:30:00Z,28.9818,-94.9186,4.0,3.931539139,22.58597081,5.29,'11111222,11111222,11111222' 
TABS,ioos:station:wmo:42043:1,2014-04-18T20:00:00Z,28.9818,-94.9186,4.0,4.038873605,15.06824246,5.13,'11111222,11111222,11111222' 
TABS,ioos:station:wmo:42043:1,2014-04-18T20:30:00Z,28.9818,-94.9186,4.0,2.824128184,17.72896152,3.42,'11111222,11111222,11111222' 
TABS,ioos:station:wmo:42043:1,2014-04-18T21:00:00Z,28.9818,-94.9186,4.0,1.792540097,54.53629777,2.4,'11111222,11111222,11111222' 
TABS,ioos:station:wmo:42043:1,2014-04-18T21:30:00Z,28.9818,-94.9186,4.0,2.061771083,96.12577853,2.71,'11111222,11111222,11111222' 
TABS,ioos:station:wmo:42043:1,2014-04-18T22:00:00Z,28.9818,-94.9186,4.0,2.204177851,126.1423776,2.92,'11111222,11111222,11111222' 
TABS,ioos:station:wmo:42043:1,2014-04-18T22:30:00Z,28.9818,-94.9186,4.0,3.134996013,149.099213,4.34,'11111222,11111222,11111222' 
TABS,ioos:station:wmo:42043:1,2014-04-18T23:00:00Z,28.9818,-94.9186,4.0,4.400920358,150.7559962,5.34,'11111222,11111222,11111222' 
TABS,ioos:station:wmo:42043:1,2014-04-18T23:30:00Z,28.9818,-94.9186,4.0,4.220924069,157.8711638,5.26,'11111222,11111222,11111222' 
TABS,ioos:station:wmo:42043:1,2014-04-19T00:00:00Z,28.9818,-94.9186,4.0,4.054442008,155.5212267,4.91,'11111222,11111222,11111222' 
TABS,ioos:station:wmo:42043:1,2014-04-19T00:30:00Z,28.9818,-94.9186,4.0,3.525124111,146.2200634,4.21,'11111222,11111222,11111222' 
TABS,ioos:station:wmo:42043:1,2014-04-19T01:00:00Z,28.9818,-94.9186,4.0,4.173463789,133.4469162,4.92,'11111222,11111222,11111222' 
TABS,ioos:station:wmo:42043:1,2014-04-19T01:30:00Z,28.9818,-94.9186,4.0,4.027157807,123.4536521,5.24,'11111222,11111222,11111222' 
TABS,ioos:station:wmo:42043:1,2014-04-19T02:00:00Z,28.9818,-94.9186,4.0,3.548027621,127.0963132,4.5,'11111222,11111222,11111222' 
TABS,ioos:station:wmo:42043:1,2014-04-19T02:30:00Z,28.9818,-94.9186,4.0,2.991003176,100.5965165,3.63,'11111222,11111222,11111222' 
TABS,ioos:station:wmo:42043:1,2014-04-19T03:00:00Z,28.9818,-94.9186,4.0,3.153299859,103.1992933,3.9,'11111222,11111222,11111222' 
TABS,ioos:station:wmo:42043:1,2014-04-19T03:30:00Z,28.9818,-94.9186,4.0,2.507369139,123.1200073,3.24,'11111222,11111222,11111222' 
TABS,ioos:station:wmo:42043:1,2014-04-19T04:00:00Z,28.9818,-94.9186,4.0,2.839806331,116.56541,3.4,'11111222,11111222,11111222' 
TABS,ioos:station:wmo:42043:1,2014-04-19T04:30:00Z,28.9818,-94.9186,4.0,2.654241888,93.24011364,3.22,'11111222,11111222,11111222' 
TABS,ioos:station:wmo:42043:1,2014-04-19T05:00:00Z,28.9818,-94.9186,4.0,2.205107707,93.90090554,2.83,'11111222,11111222,11111222' 
TABS,ioos:station:wmo:42043:1,2014-04-19T05:30:00Z,28.9818,-94.9186,4.0,1.354843164,98.48934495,1.92,'11111222,11111222,11111222' 
TABS,ioos:station:wmo:42043:1,2014-04-19T06:00:00Z,28.9818,-94.9186,4.0,0.652533524,74.89851623,0.87,'11111222,11111222,11111222' 
TABS,ioos:station:wmo:42043:1,2014-04-19T06:30:00Z,28.9818,-94.9186,4.0,0.421900462,5.440108851,0.69,'11111222,11111222,11111222' 
TABS,ioos:station:wmo:42043:1,2014-04-19T07:00:00Z,28.9818,-94.9186,4.0,0.752861209,196.990994,1.15,'11111222,11111222,11111222' 
TABS,ioos:station:wmo:42043:1,2014-04-19T07:30:00Z,28.9818,-94.9186,4.0,2.683654225,320.1396401,3.62,'11111222,11111222,11111222' 
TABS,ioos:station:wmo:42043:1,2014-04-19T08:00:00Z,28.9818,-94.9186,4.0,3.023722871,334.536504,3.74,'11111222,11111222,11111222' 
TABS,ioos:station:wmo:42043:1,2014-04-19T08:30:00Z,28.9818,-94.9186,4.0,3.473845132,339.7912685,4.21,'11111222,11111222,11111222' 
TABS,ioos:station:wmo:42043:1,2014-04-19T09:00:00Z,28.9818,-94.9186,4.0,3.477542236,349.5623386,4.2,'11111222,11111222,11111222' 
TABS,ioos:station:wmo:42043:1,2014-04-19T09:30:00Z,28.9818,-94.9186,4.0,3.563846237,7.902510405,4.14,'11111222,11111222,11111222' 
TABS,ioos:station:wmo:42043:1,2014-04-19T10:00:00Z,28.9818,-94.9186,4.0,3.559129107,15.48077833,4.2,'11111222,11111222,11111222' 
TABS,ioos:station:wmo:42043:1,2014-04-19T10:30:00Z,28.9818,-94.9186,4.0,3.787268145,8.044293193,4.58,'11111222,11111222,11111222' 
TABS,ioos:station:wmo:42043:1,2014-04-19T11:00:00Z,28.9818,-94.9186,4.0,4.46060534,8.638508246,5.21,'11111222,11111222,11111222' 
TABS,ioos:station:wmo:42043:1,2014-04-19T11:30:00Z,28.9818,-94.9186,4.0,3.804944152,10.60091961,4.68,'11111222,11111222,11111222' 
TABS,ioos:station:wmo:42043:1,2014-04-19T12:00:00Z,28.9818,-94.9186,4.0,3.264352922,17.10247852,4.07,'11111222,11111222,11111222' 
TABS,ioos:station:wmo:42043:1,2014-04-19T12:30:00Z,28.9818,-94.9186,4.0,3.350059701,25.64690286,4.07,'11111222,11111222,11111222' 
TABS,ioos:station:wmo:42043:1,2014-04-19T13:00:00Z,28.9818,-94.9186,4.0,3.046112276,41.53950917,3.71,'11111222,11111222,11111222' 
TABS,ioos:station:wmo:42043:1,2014-04-19T13:30:00Z,28.9818,-94.9186,4.0,3.112041131,52.8351911,3.83,'11111222,11111222,11111222' 
TABS,ioos:station:wmo:42043:1,2014-04-19T14:00:00Z,28.9818,-94.9186,4.0,2.586058777,48.60532755,3.27,'11111222,11111222,11111222' 
TABS,ioos:station:wmo:42043:1,2014-04-19T14:30:00Z,28.9818,-94.9186,4.0,2.028718808,66.46728555,2.6,'11111222,11111222,11111222' 
TABS,ioos:station:wmo:42043:1,2014-04-19T15:00:00Z,28.9818,-94.9186,4.0,2.354400136,73.71994395,3.42,'11111222,11111222,11111222' 
TABS,ioos:station:wmo:42043:1,2014-04-19T15:30:00Z,28.9818,-94.9186,4.0,3.228761372,71.95748751,3.83,'11111222,11111222,11111222' 
TABS,ioos:station:wmo:42043:1,2014-04-19T16:00:00Z,28.9818,-94.9186,4.0,3.790949749,78.89715767,4.78,'11111222,11111222,11111222' 
TABS,ioos:station:wmo:42043:1,2014-04-19T16:30:00Z,28.9818,-94.9186,4.0,4.074616546,75.79284619,4.93,'11111222,11111222,11111222' 
TABS,ioos:station:wmo:42043:1,2014-04-19T17:00:00Z,28.9818,-94.9186,4.0,4.216028937,82.50373897,5.22,'11111222,11111222,11111222' 
TABS,ioos:station:wmo:42043:1,2014-04-19T17:30:00Z,28.9818,-94.9186,4.0,5.198095805,93.19858603,6.33,'11111222,11111222,11111222' 
TABS,ioos:station:wmo:42043:1,2014-04-19T18:00:00Z,28.9818,-94.9186,4.0,6.823672032,102.1831163,8.21,'11111222,11111222,11111222' 
TABS,ioos:station:wmo:42043:1,2014-04-19T18:30:00Z,28.9818,-94.9186,4.0,6.458428601,101.8844821,7.8,'11111222,11111222,11111222' 
TABS,ioos:station:wmo:42043:1,2014-04-19T19:00:00Z,28.9818,-94.9186,4.0,6.172722252,113.2842729,7.3,'11111222,11111222,11111222' 
TABS,ioos:station:wmo:42043:1,2014-04-19T19:30:00Z,28.9818,-94.9186,4.0,5.746529387,119.7328658,6.59,'11111222,11111222,11111222' 
TABS,ioos:station:wmo:42043:1,2014-04-19T20:00:00Z,28.9818,-94.9186,4.0,5.112426039,127.6099238,6.07,'11111222,11111222,11111222' 
TABS,ioos:station:wmo:42043:1,2014-04-19T20:30:00Z,28.9818,-94.9186,4.0,5.383994799,129.574265,6.63,'11111222,11111222,11111222' 
TABS,ioos:station:wmo:42043:1,2014-04-19T21:00:00Z,28.9818,-94.9186,4.0,5.039454336,131.0579043,6.36,'11111222,11111222,11111222' 
TABS,ioos:station:wmo:42043:1,2014-04-19T21:30:00Z,28.9818,-94.9186,4.0,4.957035404,138.1076008,6.26,'11111222,11111222,11111222' 
TABS,ioos:station:wmo:42043:1,2014-04-19T22:00:00Z,28.9818,-94.9186,4.0,5.061314059,140.0497906,6.21,'11111222,11111222,11111222' 
TABS,ioos:station:wmo:42043:1,2014-04-19T22:30:00Z,28.9818,-94.9186,4.0,5.211612035,135.5444913,6.54,'11111222,11111222,11111222' 
TABS,ioos:station:wmo:42043:1,2014-04-19T23:00:00Z,28.9818,-94.9186,4.0,5.229196879,130.2688556,6.6,'11111222,11111222,11111222' 
TABS,ioos:station:wmo:42043:1,2014-04-19T23:30:00Z,28.9818,-94.9186,4.0,4.780376554,134.3222924,6.02,'11111222,11111222,11111222' 
TABS,ioos:station:wmo:42043:1,2014-04-20T00:00:00Z,28.9818,-94.9186,4.0,4.708141884,125.1419039,5.85,'11111222,11111222,11111222' 
TABS,ioos:station:wmo:42043:1,2014-04-20T00:30:00Z,28.9818,-94.9186,4.0,4.031042049,131.4804139,5.12,'11111222,11111222,11111222' 
TABS,ioos:station:wmo:42043:1,2014-04-20T01:00:00Z,28.9818,-94.9186,4.0,3.742191871,131.0998311,4.57,'11111222,11111222,11111222' 
TABS,ioos:station:wmo:42043:1,2014-04-20T01:30:00Z,28.9818,-94.9186,4.0,3.585875068,136.2432215,4.24,'11111222,11111222,11111222' 
TABS,ioos:station:wmo:42043:1,2014-04-20T02:00:00Z,28.9818,-94.9186,4.0,3.513659061,138.4615615,4.27,'11111222,11111222,11111222' 
TABS,ioos:station:wmo:42043:1,2014-04-20T02:30:00Z,28.9818,-94.9186,4.0,3.527775503,138.4476945,4.28,'11111222,11111222,11111222' 
TABS,ioos:station:wmo:42043:1,2014-04-20T03:00:00Z,28.9818,-94.9186,4.0,3.952138662,131.7181388,5.11,'11111222,11111222,11111222' 
TABS,ioos:station:wmo:42043:1,2014-04-20T03:30:00Z,28.9818,-94.9186,4.0,4.200809446,135.9647977,5.17,'11111222,11111222,11111222' 
TABS,ioos:station:wmo:42043:1,2014-04-20T04:00:00Z,28.9818,-94.9186,4.0,4.388496326,143.9921191,5.66,'11111222,11111222,11111222' 
TABS,ioos:station:wmo:42043:1,2014-04-20T04:30:00Z,28.9818,-94.9186,4.0,4.235304003,152.8907174,5.13,'11111222,11111222,11111222' 
TABS,ioos:station:wmo:42043:1,2014-04-20T05:00:00Z,28.9818,-94.9186,4.0,4.006320007,159.393998,4.8,'11111222,11111222,11111222' 
TABS,ioos:station:wmo:42043:1,2014-04-20T05:30:00Z,28.9818,-94.9186,4.0,3.511936788,166.1618431,4.43,'11111222,11111222,11111222' 
TABS,ioos:station:wmo:42043:1,2014-04-20T06:00:00Z,28.9818,-94.9186,4.0,3.205058502,176.7807231,4.14,'11111222,11111222,11111222' 
TABS,ioos:station:wmo:42043:1,2014-04-20T06:30:00Z,28.9818,-94.9186,4.0,3.220062111,157.7362674,3.97,'11111222,11111222,11111222' 
TABS,ioos:station:wmo:42043:1,2014-04-20T07:00:00Z,28.9818,-94.9186,4.0,2.955757094,167.891943,3.9,'11111222,11111222,11111222' 
TABS,ioos:station:wmo:42043:1,2014-04-20T07:30:00Z,28.9818,-94.9186,4.0,2.951694429,165.6815256,4.01,'11111222,11111222,11111222' 
TABS,ioos:station:wmo:42043:1,2014-04-20T08:00:00Z,28.9818,-94.9186,4.0,1.963288058,167.946247,2.45,'11111222,11111222,11111222' 
TABS,ioos:station:wmo:42043:1,2014-04-20T08:30:00Z,28.9818,-94.9186,4.0,1.752084473,162.3926212,2.33,'11111222,11111222,11111222' 
TABS,ioos:station:wmo:42043:1,2014-04-20T09:00:00Z,28.9818,-94.9186,4.0,1.885974549,175.4384131,2.36,'11111222,11111222,11111222' 
TABS,ioos:station:wmo:42043:1,2014-04-20T09:30:00Z,28.9818,-94.9186,4.0,2.624061737,143.523427,3.12,'11111222,11111222,11111222' 
TABS,ioos:station:wmo:42043:1,2014-04-20T10:00:00Z,28.9818,-94.9186,4.0,2.831430734,141.3088899,3.48,'11111222,11111222,11111222' 
TABS,ioos:station:wmo:42043:1,2014-04-20T10:30:00Z,28.9818,-94.9186,4.0,2.157243612,133.6855645,2.81,'11111222,11111222,11111222' 
TABS,ioos:station:wmo:42043:1,2014-04-20T11:00:00Z,28.9818,-94.9186,4.0,2.932933685,125.4244691,3.54,'11111222,11111222,11111222' 
TABS,ioos:station:wmo:42043:1,2014-04-20T11:30:00Z,28.9818,-94.9186,4.0,1.967561943,102.623955,2.72,'11111222,11111222,11111222' 
TABS,ioos:station:wmo:42043:1,2014-04-20T12:00:00Z,28.9818,-94.9186,4.0,0.79101201,87.10100906,1.27,'11111222,11111222,11111222' 
TABS,ioos:station:wmo:42043:1,2014-04-20T12:30:00Z,28.9818,-94.9186,4.0,1.06117859,92.70104394,1.27,'11111222,11111222,11111222' 
TABS,ioos:station:wmo:42043:1,2014-04-20T13:00:00Z,28.9818,-94.9186,4.0,1.264357544,98.64320329,1.82,'11111222,11111222,11111222' 
TABS,ioos:station:wmo:42043:1,2014-04-20T13:30:00Z,28.9818,-94.9186,4.0,2.096187015,74.50476672,2.49,'11111222,11111222,11111222' 
TABS,ioos:station:wmo:42043:1,2014-04-20T14:00:00Z,28.9818,-94.9186,4.0,2.704403816,76.52859862,3.01,'11111222,11111222,11111222' 
TABS,ioos:station:wmo:42043:1,2014-04-20T14:30:00Z,28.9818,-94.9186,4.0,2.987390165,79.78052857,3.48,'11111222,11111222,11111222' 
TABS,ioos:station:wmo:42043:1,2014-04-20T15:00:00Z,28.9818,-94.9186,4.0,3.580223457,83.90682167,4.16,'11111222,11111222,11111222' 
TABS,ioos:station:wmo:42043:1,2014-04-20T15:30:00Z,28.9818,-94.9186,4.0,3.360862984,85.39168131,4.05,'11111222,11111222,11111222' 
TABS,ioos:station:wmo:42043:1,2014-04-20T16:00:00Z,28.9818,-94.9186,4.0,4.063889762,83.78395772,4.81,'11111222,11111222,11111222' 
TABS,ioos:station:wmo:42043:1,2014-04-20T16:30:00Z,28.9818,-94.9186,4.0,4.793881517,80.63552247,5.41,'11111222,11111222,11111222' 
TABS,ioos:station:wmo:42043:1,2014-04-20T17:00:00Z,28.9818,-94.9186,4.0,4.540407471,84.56524178,5.48,'11111222,11111222,11111222' 
TABS,ioos:station:wmo:42043:1,2014-04-20T17:30:00Z,28.9818,-94.9186,4.0,4.470402666,89.2305562,5.36,'11111222,11111222,11111222' 
TABS,ioos:station:wmo:42043:1,2014-04-20T18:00:00Z,28.9818,-94.9186,4.0,4.03744969,96.68537054,4.86,'11111222,11111222,11111222' 
TABS,ioos:station:wmo:42043:1,2014-04-20T18:30:00Z,28.9818,-94.9186,4.0,3.260628774,115.6223569,3.79,'11111222,11111222,11111222' 